Location: Anne Acres
(38.7004°N, 75.0827°W)
Time: 13:21:14
(UTC+00:00)

Tiros 1 - All Passes

Search period start: 07 November 2024 00:00
Search period end: 17 November 2024 00:00
Orbit: 622 x 654 km, 48.4° (Epoch: 06 November)

Date Brightness Start Highest point End Pass type
(mag) Time Alt. Az. Time Alt. Az. Time Alt. Az.
07 Nov - 01:09:22 10° W 01:13:57 48° NNW 01:18:34 10° NE visible
07 Nov - 02:52:48 10° WNW 02:56:47 25° N 03:00:45 10° NE night (unlit)
07 Nov - 04:35:30 10° NW 04:39:48 32° NNE 04:44:04 10° E night (unlit)
07 Nov - 06:17:26 10° WNW 06:22:12 84° SSW 06:26:55 10° SE night (unlit)
07 Nov - 08:00:54 10° W 08:03:38 15° SW 08:06:22 10° SSW night (unlit)
07 Nov - 22:10:46 10° SSE 22:13:31 15° SE 22:16:17 10° E daylight
07 Nov - 23:50:14 10° SW 23:54:57 84° SSE 23:59:44 10° ENE visible
08 Nov - 01:33:05 10° W 01:37:22 32° NNW 01:41:39 10° NE visible
08 Nov - 03:16:25 10° NW 03:20:23 25° N 03:24:21 10° ENE night (unlit)
08 Nov - 04:58:35 10° NW 05:03:12 48° NNE 05:07:47 10° E night (unlit)
08 Nov - 06:40:45 10° WNW 06:45:12 40° SW 06:49:35 10° SSE night (unlit)
08 Nov - 22:32:02 10° SSW 22:36:15 34° SE 22:40:32 10° ENE visible
09 Nov - 00:13:30 10° WSW 00:18:08 54° NNW 00:22:49 10° NE visible
09 Nov - 01:56:53 10° WNW 02:00:54 26° N 02:04:55 10° NE visible
09 Nov - 03:39:43 10° NW 03:43:56 30° NNE 03:48:08 10° ENE night (unlit)
09 Nov - 05:21:38 10° WNW 05:26:26 84° NNE 05:31:09 10° ESE night (unlit)
09 Nov - 07:04:41 10° W 07:07:58 19° SW 07:11:14 10° S night (unlit)
09 Nov - 21:15:52 10° SSE 21:17:51 13° SE 21:19:50 10° ESE daylight
09 Nov - 22:54:29 10° SW 22:59:11 72° SE 23:03:55 10° ENE visible
10 Nov - 00:37:09 10° W 00:41:30 35° NNW 00:45:52 10° NE visible
10 Nov - 02:20:32 10° NW 02:24:29 25° N 02:28:25 10° ENE night (unlit)
10 Nov - 04:02:49 10° NW 04:07:22 43° NNE 04:11:53 10° E night (unlit)
10 Nov - 05:44:52 10° WNW 05:49:26 48° SW 05:53:59 10° SE night (unlit)
10 Nov - 21:36:32 10° SSW 21:40:32 28° SE 21:44:34 10° ENE daylight
10 Nov - 23:17:37 10° WSW 23:22:18 61° NNW 23:27:01 10° NE visible
11 Nov - 01:00:56 10° WNW 01:04:59 27° N 01:09:03 10° NE visible
11 Nov - 02:43:53 10° NW 02:48:02 29° NNE 02:52:10 10° ENE night (unlit)
11 Nov - 04:25:50 10° NW 04:30:37 73° NNE 04:35:20 10° ESE night (unlit)
11 Nov - 06:08:33 10° W 06:12:15 23° SW 06:15:55 10° S night (unlit)
11 Nov - 21:58:46 10° SW 22:03:23 60° SE 22:08:04 10° ENE daylight
11 Nov - 23:41:11 10° W 23:45:35 38° NNW 23:50:03 10° NE visible
12 Nov - 01:24:36 10° NW 01:28:32 25° N 01:32:29 10° NE visible
12 Nov - 03:07:00 10° NW 03:11:28 39° NNE 03:15:55 10° E night (unlit)
12 Nov - 04:48:59 10° WNW 04:53:39 58° SW 04:58:17 10° SE night (unlit)
12 Nov - 20:41:04 10° S 20:44:47 24° SE 20:48:32 10° E daylight
12 Nov - 22:21:45 10° WSW 22:26:26 70° NNW 22:31:11 10° NE visible
13 Nov - 00:04:57 10° WNW 00:09:02 28° N 00:13:09 10° NE visible
13 Nov - 01:48:01 10° NW 01:52:05 27° N 01:56:09 10° ENE visible
13 Nov - 03:30:01 10° NW 03:34:44 64° NNE 03:39:27 10° ESE night (unlit)
13 Nov - 05:12:30 10° WNW 05:16:30 27° SW 05:20:28 10° SSE night (unlit)
13 Nov - 21:03:03 10° SW 21:07:34 50° SE 21:12:10 10° ENE daylight
13 Nov - 22:45:12 10° W 22:49:40 41° NNW 22:54:11 10° NE visible
14 Nov - 00:28:39 10° WNW 00:32:34 25° N 00:36:30 10° NE visible
14 Nov - 02:11:09 10° NW 02:15:32 35° NNE 02:19:55 10° E night (unlit)
14 Nov - 03:53:05 10° WNW 03:57:49 69° SW 04:02:32 10° SE night (unlit)
14 Nov - 05:37:22 10° WSW 05:39:08 12° SW 05:40:54 10° SSW night (unlit)
14 Nov - 19:45:41 10° S 19:49:00 19° SE 19:52:22 10° E daylight
14 Nov - 21:25:52 10° WSW 21:30:34 81° NNW 21:35:18 10° NE daylight
14 Nov - 23:08:55 10° WNW 23:13:04 30° NNW 23:17:15 10° NE visible
15 Nov - 00:52:05 10° NW 00:56:06 26° N 01:00:07 10° ENE visible
15 Nov - 02:34:09 10° NW 02:38:51 56° NNE 02:43:31 10° ESE night (unlit)
15 Nov - 04:16:27 10° WNW 04:20:41 32° SW 04:24:54 10° SSE night (unlit)
15 Nov - 20:07:21 10° SSW 20:11:44 42° SE 20:16:11 10° ENE daylight
15 Nov - 21:49:13 10° W 21:53:44 46° NNW 21:58:18 10° NE daylight
15 Nov - 23:32:38 10° WNW 23:36:34 25° N 23:40:31 10° NE visible
16 Nov - 01:15:16 10° NW 01:19:34 33° NNE 01:23:53 10° E visible
16 Nov - 02:57:10 10° WNW 03:01:57 81° SW 03:06:41 10° SE night (unlit)
16 Nov - 04:40:43 10° W 04:43:22 15° SW 04:45:59 10° SSW night (unlit)
16 Nov - 18:50:24 10° SSE 18:53:13 16° SE 18:56:03 10° E daylight
16 Nov - 20:29:59 10° SW 20:34:40 87° SE 20:39:24 10° ENE daylight
16 Nov - 22:12:52 10° W 22:17:05 31° NNW 22:21:19 10° NE visible
